Home > Weather > Xi'an > Past weeks

Flag for China Past Weather in Xi'an, Shaanxi, China — Yesterday and Last 2 Weeks

Now
88 °F

Passing clouds.


Feels Like: 89 °F
Forecast: 68 / 98 °F
Wind: 8 mph from Southwest

Location: Xian/Xianyang

Current Time: Jun 27, 2016 at 2:01:31 PM

Latest Report: Jun 27, 2016 at 1:00 PM


Visibility: N/A

Pressure: 29.71 "Hg

Humidity: 46%

Dew Point: 64 °F

Location of Xi'anLocation

Past Weather in Xi'an — Graph

°F

Xi'an Temperature Yesterday

Maximum temperature yesterday: 82 °F (at 12:00 PM)
Minimum temperature yesterday: 72 °F (at 5:00 AM)
Average temperature yesterday: 78 °F

High & Low Weather Summary for the Past Weeks

 TemperatureHumidityPressure
High100 °F (Jun 19, 4:00 PM)100% (Jun 23, 11:00 AM)29.92 "Hg (Jun 23, 11:00 AM)
Low57 °F (Jun 16, 6:00 AM)15% (Jun 14, 3:00 PM)29.45 "Hg (Jun 13, 5:00 PM)
Average81 °F54%29.69 "Hg
* Reported Jun 12 12:00 PM — Jun 27 12:00 PM, Xi'an, Weather by CustomWeather, © 2016

Note: Actual official high and low records may vary slightly from our data, if they occured in-between our weather recording intervals... More about our weather records

Advertising

Xi'an Weather History for the Previous 24 Hours

Scroll right to see more
 ConditionsComfort  
Time TempWeatherWind HumidityBarometerVisibility
12:00 PM
Mon, Jun 27
86 °FSunny.3 mph49%29.74 "Hg10 mi
11:00 AM82 °FPassing clouds.6 mph55%29.74 "HgN/A
10:00 AM81 °FPassing clouds.3 mph62%29.77 "HgN/A
9:00 AM77 °FClear.6 mph74%29.77 "Hg4 mi
8:00 AM73 °FClear.1 mph83%29.77 "Hg4 mi
7:00 AM68 °FFog.1 mph100%29.77 "Hg3 mi
6:00 AM64 °FFog.1 mph100%29.77 "Hg3 mi
5:00 AM64 °FFog.1 mph100%29.77 "Hg3 mi
4:00 AM66 °FFog.3 mph94%29.77 "Hg3 mi
3:00 AM68 °FFog.1 mph100%29.77 "Hg3 mi
2:00 AM68 °FFog.1 mph100%29.77 "Hg3 mi
1:00 AM70 °FFog.3 mph94%29.77 "Hg3 mi
12:00 AM72 °FFog.3 mph94%29.77 "Hg3 mi
11:00 PM
Sun, Jun 26
72 °FFog.3 mph94%29.77 "Hg3 mi
10:00 PM72 °FFog.No wind94%29.77 "Hg3 mi
9:00 PM73 °FClear.1 mph83%29.77 "Hg4 mi
8:00 PM77 °FClear.1 mph69%29.77 "Hg4 mi
7:00 PM81 °FPassing clouds.3 mph58%29.74 "HgN/A
6:00 PM81 °FSunny.6 mph54%29.77 "Hg10 mi
5:00 PM82 °FPassing clouds.6 mph51%29.77 "HgN/A
4:00 PM82 °FSunny.6 mph48%29.77 "Hg10 mi
3:00 PM82 °FPassing clouds.6 mph48%29.80 "HgN/A
2:00 PM82 °FSunny.1 mph42%29.80 "Hg10 mi
Weather by CustomWeather, © 2016

See weather overviewHow to use our weather pages